[[{"header":{"parameterUnit":"m.s-1","parameterCategory":1,"la1":30.2991,"la2":30.254,"lo1":-89.0895,"lo2":-89.0444,"dy":0.0017,"dx":0.0017,"nx":28,"ny":28,"refTime":"2025-09-17T03:00:00:Z","depth":0,"parameterNumber":2,"parameterNumberName":"U-component_of_WINDS"},"data":[0,0,0,0,0,0,0,0,0,0,0,0,0,0,0,0,0,0,0,0,0,0,0,0,0,0,0,0,0,0,0,0,0,0,0,0,0,0,0,0,0,0,0,0,0,0,0,0,0,0,0,0,0,0,0,0,0,0,2.2741,2.2742,0,2.2786,2.2787,2.2787,2.2778,2.2778,2.2777,2.2776,2.282,2.2822,2.2824,0,0,0,0,0,0,0,0,0,0,0,0,0,2.2643,2.2645,2.2741,2.2742,2.2742,2.2786,2.2787,2.2787,2.2779,2.2778,2.2777,2.2776,2.2819,2.2822,2.2824,0,0,0,0,0,0,0,0,0,0,0,0,0,2.2687,2.2646,2.2741,2.2743,2.2744,2.2786,2.2787,2.2787,2.2779,2.2778,2.2776,2.2775,2.2819,2.2821,2.2824,2.2866,0,0,2.2833,2.2834,0,0,0,0,0,0,0,0,2.2684,2.269,2.2742,2.2743,2.2744,2.2775,2.2768,2.2814,2.2779,2.2765,2.2776,2.2775,2.2806,2.281,2.2821,2.2868,2.287,2.2833,2.2835,2.2836,2.2837,0,0,0,0,0,0,0,2.2681,2.2688,2.2759,2.2743,2.2744,2.274,2.2745,2.2777,2.2792,2.2767,2.2766,2.2772,2.2806,2.2818,2.2822,2.2871,2.2833,2.2836,2.2838,2.2839,2.2951,2.2952,0,0,0,0,0,0,2.2678,2.2686,2.2757,2.276,2.271,2.2743,2.2749,2.2766,2.2792,2.2794,2.2773,2.2771,2.2814,2.2819,2.2823,2.2872,2.2836,2.2839,2.2841,2.295,2.2951,2.2953,0,0,0,0,0,0,2.2676,2.2684,2.2756,2.2723,2.2732,2.2746,2.2766,2.2768,2.278,2.2796,2.2798,2.2782,2.2813,2.2819,2.2855,2.2873,2.284,2.2843,2.2948,2.295,2.2952,2.297,0,0,0,0,0,0,2.2673,2.2684,2.2701,2.2723,2.2733,2.2788,2.2768,2.277,2.2785,2.2784,2.2806,2.2808,2.2813,2.2851,2.2858,2.2876,2.2845,2.2947,2.2949,2.2951,2.2968,2.2972,2.2976,0,0,0,0,0,2.267,2.2705,2.2702,2.2711,2.2756,2.2789,2.2795,2.2799,2.2787,2.2803,2.2813,2.2808,2.287,2.2854,2.2862,2.2882,2.2946,2.2949,2.2951,2.2966,2.2971,2.2976,0,0,0,0,0,0,2.2684,2.2708,2.2705,2.2749,2.2767,2.2787,2.2809,2.2805,2.2827,2.2825,2.2829,2.2834,2.287,2.288,2.2862,2.2922,2.2906,2.291,2.2914,2.292,2.2924,2.292,2.2848,0,0,0,0,0,2.2693,2.2719,2.2738,2.2774,2.2783,2.2794,2.2809,2.2811,2.283,2.2837,2.285,2.2867,2.289,2.2906,2.2929,2.2969,2.2972,2.2987,2.2991,2.2994,2.2997,2.3016,2.3022,2.2962,2.2962,2.2962,0,0,2.271,2.2726,2.2742,2.2777,2.2792,2.2817,2.2801,2.2829,2.2847,2.2841,2.2875,2.2885,2.2904,2.2942,2.2959,2.2951,2.3015,2.2998,2.3,2.3002,2.302,2.3026,2.3031,2.2964,2.2964,2.2963,0,0,2.2754,2.277,2.2801,2.2815,2.2837,2.2843,2.285,2.2871,2.2877,2.2911,2.2906,2.2927,2.2968,2.2981,2.2994,2.3039,2.3034,2.3047,2.3068,2.3086,2.3091,2.3095,2.3109,2.3114,2.305,2.305,2.305,0,2.2773,2.2812,2.2817,2.2844,2.2858,2.2854,2.2884,2.2897,2.2925,2.2934,2.2925,2.2974,2.2987,2.3026,2.3037,2.3048,2.3054,2.3044,2.309,2.3094,2.3098,2.3111,2.3117,2.3052,2.3051,2.3051,2.3051,0,2.2832,2.2859,2.2881,2.2907,2.2924,2.2952,2.296,2.2976,2.2975,2.2982,2.3015,2.3031,2.3055,2.3065,2.3065,2.3103,2.3097,2.3089,2.3073,2.3105,2.3117,2.3123,2.3053,2.3053,2.3053,2.3052,0,0,2.2888,2.2915,2.2922,2.2933,2.2955,2.2975,2.3002,2.3026,2.3038,2.3057,2.3078,2.3111,2.3103,2.3117,2.3118,2.3135,2.3167,2.3125,2.3125,2.313,2.3206,2.321,2.3216,2.3164,2.3165,2.3166,2.3203,0,2.2932,2.298,2.2984,2.3027,2.305,2.3045,2.3068,2.3083,2.309,2.3109,2.3116,2.3138,2.3128,2.3135,2.3152,2.3159,2.3182,2.3157,2.3181,2.3182,2.3175,2.3223,2.3228,2.3263,2.3208,2.3209,2.321,0,2.2991,2.301,2.3055,2.3071,2.308,2.3101,2.3121,2.3141,2.3157,2.316,2.3174,2.3173,2.3198,2.3181,2.3215,2.3198,2.3208,2.3213,2.3215,2.3216,2.3197,2.3223,2.3275,2.3279,2.3218,2.3217,2.3217,0,2.3023,2.3061,2.3091,2.3101,2.3121,2.3135,2.3144,2.3159,2.3172,2.3189,2.3197,2.3217,2.3228,2.3243,2.3246,2.3234,2.3279,2.3263,2.3281,2.328,2.3289,2.3288,2.3341,2.3299,2.3299,2.3299,2.3299,0,2.3071,2.3098,2.3106,2.3125,2.3154,2.3157,2.3185,2.3193,2.3206,2.3225,2.3222,2.3239,2.3244,2.3261,2.3264,2.329,2.3296,2.3297,2.3298,2.3297,2.3296,2.3302,2.3299,2.33,2.33,2.33,2.3299,0,2.3112,2.3119,2.3152,2.3167,2.3172,2.3192,2.3205,2.3222,2.3228,2.3251,2.3257,2.3265,2.3286,2.3291,2.3316,2.3317,2.3347,2.3346,2.3342,2.3341,2.3357,2.3355,2.3414,2.3421,2.3376,2.3377,2.3377,0,2.3142,2.3162,2.3179,2.3192,2.3201,2.3221,2.3234,2.3237,2.325,2.3268,2.3282,2.3302,2.3318,2.3351,2.3359,2.3377,2.3375,2.3394,2.3377,2.3375,2.3372,2.337,2.3371,2.3397,2.3397,2.3398,2.3398,0,2.3192,2.3194,2.3212,2.3231,2.3246,2.3261,2.3276,2.3286,2.329,2.3305,2.3326,2.3338,2.3362,2.3381,2.3399,2.3407,2.3402,2.3403,2.3408,2.3406,2.3402,2.3402,2.3348,2.3402,2.3401,2.3401,2.3401,2.3401,2.3227,2.3243,2.3257,2.3277,2.3288,2.3301,2.3316,2.3323,2.3341,2.336,2.3361,2.3383,2.3396,2.3419,2.3427,2.3443,2.3437,2.3445,2.3446,2.3447,2.3448,2.3401,2.3447,2.3447,2.3447,2.3447,2.3447,0,2.3275,2.3283,2.3301,2.332,2.3335,2.333,2.3345,2.3358,2.3377,2.3389,2.3405,2.3427,2.3445,2.3453,2.347,2.3481,2.348,2.3485,2.3484,2.3485,2.3453,2.3447,2.3486,2.3486,2.3486,2.3486,2.3486,2.3486,2.3301,2.3328,2.3331,2.3362,2.337,2.3391,2.3399,2.341,2.342,2.3445,2.3459,2.3465,2.3475,2.3492,2.3507,2.3509,2.3515,2.3521,2.3522,2.3492,2.3488,2.3484,2.3477,2.3523,2.3523,2.3552,2.3552,2.3552]},{"header":{"parameterUnit":"m.s-1","parameterCategory":1,"la1":30.2991,"la2":30.254,"lo1":-89.0895,"lo2":-89.0444,"dy":0.0017,"dx":0.0017,"nx":28,"ny":28,"refTime":"2025-09-17T03:00:00:Z","depth":0,"parameterNumber":3,"parameterNumberName":"V-component_of_WINDS"},"data":[0,0,0,0,0,0,0,0,0,0,0,0,0,0,0,0,0,0,0,0,0,0,0,0,0,0,0,0,0,0,0,0,0,0,0,0,0,0,0,0,0,0,0,0,0,0,0,0,0,0,0,0,0,0,0,0,0,0,0.275,0.2751,0,0.2862,0.2863,0.2865,0.2879,0.2878,0.2877,0.2876,0.2993,0.2997,0.3001,0,0,0,0,0,0,0,0,0,0,0,0,0,0.2547,0.255,0.2749,0.2751,0.2752,0.2862,0.2864,0.2865,0.2879,0.2878,0.2876,0.2875,0.2991,0.2996,0.3001,0,0,0,0,0,0,0,0,0,0,0,0,0,0.2645,0.2552,0.2749,0.2772,0.2776,0.2862,0.2864,0.2866,0.2879,0.2878,0.2876,0.2874,0.299,0.2996,0.3002,0.3073,0,0,0.3021,0.3024,0,0,0,0,0,0,0,0,0.2639,0.2652,0.2768,0.2771,0.2775,0.2855,0.2835,0.2935,0.288,0.284,0.2876,0.2874,0.2948,0.2958,0.2983,0.3079,0.3084,0.3021,0.3025,0.3028,0.303,0,0,0,0,0,0,0,0.2632,0.2647,0.2794,0.2769,0.2774,0.2777,0.2789,0.2854,0.2902,0.2843,0.2845,0.2858,0.295,0.2977,0.2985,0.3086,0.3021,0.3027,0.3031,0.3033,0.3244,0.3246,0,0,0,0,0,0,0.2621,0.2642,0.2791,0.2798,0.2701,0.2782,0.2796,0.2831,0.2901,0.2911,0.2859,0.2858,0.2967,0.2978,0.299,0.3077,0.3028,0.3034,0.3037,0.3243,0.3245,0.3247,0,0,0,0,0,0,0.2617,0.2634,0.2786,0.272,0.274,0.2787,0.2827,0.2834,0.2861,0.2913,0.2922,0.2877,0.2966,0.2981,0.3052,0.3082,0.3036,0.3042,0.324,0.3243,0.3246,0.3254,0,0,0,0,0,0,0.2611,0.2633,0.266,0.272,0.2743,0.2847,0.2828,0.2837,0.2871,0.2871,0.2933,0.2942,0.2966,0.3043,0.3058,0.3089,0.3047,0.3238,0.3242,0.3245,0.3251,0.3256,0.3261,0,0,0,0,0,0.2604,0.2659,0.2662,0.268,0.2779,0.2848,0.2861,0.2888,0.2873,0.2902,0.2935,0.294,0.3075,0.305,0.3067,0.3101,0.3236,0.3241,0.3245,0.3249,0.3255,0.3261,0,0,0,0,0,0,0.2602,0.2667,0.2671,0.2747,0.2792,0.285,0.2887,0.2894,0.2944,0.2942,0.2973,0.2986,0.3056,0.3085,0.3056,0.3173,0.3155,0.3162,0.3152,0.3158,0.3163,0.3155,0.3052,0,0,0,0,0,0.2611,0.2661,0.2715,0.2777,0.2799,0.2839,0.2871,0.2887,0.2934,0.2954,0.2992,0.3039,0.3092,0.3127,0.3178,0.3255,0.3268,0.3286,0.3291,0.3295,0.3302,0.3344,0.3352,0.3261,0.3261,0.3261,0,0,0.2629,0.2671,0.2701,0.2778,0.2815,0.2867,0.2855,0.2911,0.295,0.2962,0.3032,0.3061,0.3115,0.3189,0.3223,0.3216,0.333,0.33,0.3303,0.3308,0.3349,0.3357,0.3365,0.3264,0.3263,0.3263,0,0,0.2689,0.2726,0.2781,0.2817,0.2872,0.2898,0.2911,0.2968,0.2988,0.3057,0.3067,0.3114,0.3205,0.3242,0.3273,0.3345,0.3351,0.3361,0.3388,0.3428,0.3435,0.3442,0.3467,0.3476,0.3367,0.3367,0.3367,0,0.2706,0.2784,0.2809,0.2864,0.2897,0.2909,0.2965,0.2999,0.3069,0.3091,0.3081,0.3194,0.3232,0.3314,0.3331,0.3356,0.3371,0.3355,0.3432,0.3439,0.3445,0.347,0.3479,0.3368,0.3368,0.3368,0.3368,0,0.2801,0.2855,0.2893,0.2958,0.2996,0.3051,0.3084,0.3119,0.3131,0.3157,0.3228,0.3272,0.3333,0.3353,0.3366,0.3437,0.343,0.3425,0.3408,0.3454,0.3478,0.3488,0.3369,0.3369,0.3369,0.3369,0,0,0.2866,0.2942,0.2956,0.2985,0.3045,0.3088,0.3143,0.3201,0.323,0.3277,0.3324,0.3399,0.3395,0.343,0.3446,0.3482,0.3535,0.3473,0.3474,0.3483,0.3615,0.3619,0.3629,0.3538,0.354,0.3542,0.3611,0,0.2934,0.3032,0.3055,0.314,0.3189,0.32,0.3248,0.329,0.3315,0.3361,0.339,0.3443,0.3433,0.3454,0.3489,0.3521,0.3562,0.3516,0.3583,0.3585,0.357,0.3642,0.3647,0.371,0.362,0.3622,0.3623,0,0.3026,0.3073,0.3163,0.3214,0.3236,0.3279,0.3333,0.3377,0.3424,0.344,0.3478,0.3491,0.3548,0.3526,0.3605,0.3574,0.3602,0.3621,0.3624,0.3633,0.3608,0.3653,0.3731,0.374,0.3638,0.3636,0.3635,0,0.3065,0.3151,0.3215,0.3239,0.3302,0.3331,0.3359,0.3404,0.3437,0.3484,0.3506,0.3559,0.3589,0.363,0.3656,0.3638,0.3733,0.3714,0.3749,0.3748,0.377,0.3768,0.3854,0.3786,0.3786,0.3786,0.3786,0,0.3139,0.3193,0.3233,0.3273,0.3333,0.3358,0.3418,0.3445,0.3485,0.353,0.3542,0.3584,0.3616,0.3663,0.3683,0.3746,0.3759,0.3774,0.3779,0.3773,0.3771,0.3793,0.379,0.3788,0.3788,0.3787,0.3787,0,0.3193,0.3222,0.3293,0.3345,0.3359,0.3402,0.3446,0.3485,0.351,0.3566,0.3581,0.362,0.3675,0.3705,0.3774,0.3788,0.3858,0.386,0.3842,0.3844,0.3878,0.3874,0.3981,0.3997,0.3918,0.3918,0.3919,0,0.3239,0.328,0.3336,0.3367,0.3394,0.3444,0.3477,0.3502,0.3536,0.3592,0.3624,0.3679,0.3725,0.3812,0.3846,0.3899,0.3903,0.3937,0.3911,0.3904,0.3904,0.3902,0.3906,0.3942,0.3943,0.3943,0.3944,0,0.3317,0.3328,0.3375,0.3427,0.3466,0.3508,0.355,0.3574,0.3606,0.3644,0.3699,0.3734,0.3804,0.3859,0.3913,0.3941,0.3948,0.3951,0.3962,0.3957,0.3945,0.3952,0.3855,0.3949,0.3948,0.3948,0.3948,0.3948,0.3369,0.3406,0.3451,0.3502,0.3536,0.3574,0.3612,0.3641,0.3687,0.3746,0.3758,0.3816,0.3861,0.3935,0.3964,0.401,0.4004,0.402,0.4024,0.4027,0.4029,0.3936,0.402,0.402,0.402,0.402,0.402,0,0.3448,0.3476,0.3523,0.358,0.3621,0.3621,0.3667,0.3701,0.3752,0.3793,0.3837,0.39,0.3952,0.399,0.4043,0.4073,0.4077,0.4086,0.4085,0.4091,0.4032,0.4017,0.4082,0.4082,0.4082,0.4082,0.4082,0.4082,0.3494,0.3556,0.3573,0.3652,0.368,0.3737,0.3763,0.3798,0.383,0.39,0.3943,0.3967,0.4006,0.4062,0.411,0.412,0.4139,0.4148,0.4158,0.4102,0.4095,0.4089,0.4076,0.4151,0.4152,0.4213,0.4214,0.4214]}]]